#timestamp,LO_Frequency,Hit 
1505178015.2,286047004.4,N
1505178035.1,286047002.7,N
1505178036.0,286047002.7,N
1505178055.8,286046999.5,N
1505178075.6,286047000.5,N
1505178095.5,286047003.6,N
1505178115.3,286047001.9,N
1505178135.1,286047007.6,P
1505178155.9,286047002.1,N
1505178175.7,286047001.4,N
1505178195.5,286047002.1,N
1505178215.4,286047006.0,N
1505178235.2,286047002.9,N
1505178255.0,286047001.8,N
1505178255.9,286047001.8,N
1505178275.7,286047004.3,N
1505178295.6,286047002.4,N
1505178315.4,286047000.2,N
1505178335.2,286046999.8,N
1505178355.1,286046999.8,N
1505178356.0,286046999.8,N
1505178375.8,286047002.0,N
1505178395.6,286047003.2,N
1505178415.5,286047005.5,N
1505178435.3,286047005.5,N
1505178455.1,286047005.6,N
1505178475.9,286047006.0,N
1505178495.7,286047001.3,N
1505178515.5,286047000.0,N
1505178535.4,286047000.5,N
1505178555.2,286047003.8,N
1505178575.0,286047005.3,N
1505178575.9,286047005.3,N
1505178595.8,286047007.6,P
1505178615.6,286047002.7,N
1505178635.4,286047002.4,N
1505178655.3,286047002.0,N
1505178675.1,286047003.1,N
1505178676.0,286047003.1,N
1505178695.8,286047003.2,N
1505178715.7,286047004.4,N
1505178735.5,286047005.6,P
1505178755.3,286047000.4,N
1505178775.2,286047001.9,N
1505178795.9,286047000.1,N
1505178815.7,286047002.2,N
1505178835.6,286047000.8,N
1505178855.4,286047001.0,N
1505178875.2,286046999.8,N
1505178895.0,286047000.3,N
1505178895.9,286047000.3,N
1505178915.8,286046998.6,N
1505178935.6,286047001.2,N
1505178955.4,286046998.1,N
1505178975.3,286047000.4,N
1505178995.1,286046998.6,N
1505179015.8,286047001.0,N
1505179035.7,286047001.1,N
1505179055.5,286047000.8,N
1505179075.3,286046999.9,N
1505179095.2,286046997.4,N
1505179115.9,286046998.0,N
1505179135.7,286046999.2,N
1505179155.5,286046998.8,N
1505179175.4,286046997.5,N
1505179195.2,286046995.6,N
1505179215.0,286046999.5,N
1505179215.9,286046999.5,N
1505179235.8,286046998.6,N
1505179255.6,286046999.7,N
1505179275.4,286047000.4,N
1505179295.3,286046996.8,N
1505179315.1,286046997.3,N
1505179316.0,286046997.3,N
1505179335.8,286046998.2,N
1505179355.7,286047000.0,N
1505179375.5,286047002.4,N
1505179395.3,286047001.9,N
1505179415.2,286047003.9,N
1505179435.9,286047002.2,N
1505179455.7,286047002.8,N
1505179475.5,286047002.6,N
1505179495.4,286047000.0,N
1505179515.2,286047001.9,N
1505179535.0,286047001.8,N
1505179535.9,286047001.8,N
1505179555.8,286047002.5,N
1505179575.6,286047002.8,N
1505179595.4,286047000.1,N
1505179615.3,286047000.5,N
1505179635.1,286047000.1,N
1505179655.8,286047002.6,N
1505179675.7,286046999.8,N
1505179695.5,286047000.0,N
1505179715.3,286046999.0,N
1505179735.2,286047005.4,N
1505179755.9,286047001.8,N
1505179775.7,286047004.8,N
1505179795.6,286047005.8,N
1505179815.4,286047007.6,P
1505179835.2,286047005.7,N
1505179855.1,286047003.2,N
1505179856.0,286047003.2,N
1505179875.8,286047000.3,N
1505179895.6,286047001.2,N
1505179915.5,286046998.5,N
1505179935.3,286047006.0,N
1505179955.1,286047007.4,N
1505179975.9,286047005.7,N
1505179995.7,286047001.9,N
1505180015.5,286047005.1,N
1505180035.2,286047006.8,N
1505180055.0,286047003.0,N
1505180055.9,286047003.0,N
1505180075.8,286047003.0,N
1505180095.6,286047002.8,N
1505180115.4,286047003.5,N
1505180135.3,286047003.8,N
1505180155.1,286047004.0,N
1505180175.8,286047003.1,N
1505180195.7,286047006.7,N
1505180215.5,286047006.0,N
1505180235.3,286047001.8,N
1505180255.2,286046998.1,N
1505180275.9,286046999.7,N
1505180295.7,286047003.6,N
1505180315.6,286047005.6,N
1505180335.4,286047007.6,P
1505180355.2,286047002.2,N
1505180375.1,286047000.7,N
1505180376.0,286047000.7,N
1505180395.8,286046998.4,N
1505180415.6,286046997.6,N
1505180435.5,286047000.3,N
1505180455.3,286047002.1,N
1505180475.1,286047003.4,N
1505180495.8,286047004.2,N
1505180515.7,286047000.0,N
1505180535.5,286047001.1,N
1505180555.3,286046999.7,N
1505180575.2,286047001.1,N
1505180595.9,286047001.4,N
1505180615.7,286047001.1,N
1505180635.6,286046998.2,N
1505180655.4,286047001.1,N
1505180675.2,286046999.7,N
1505180695.1,286047001.8,N
1505180696.0,286047001.8,N
1505180715.8,286047005.2,N
1505180735.6,286046999.9,N
1505180755.4,286047003.2,N
1505180775.3,286047004.6,N
1505180795.1,286047005.9,N
1505180815.9,286047007.6,P
1505180835.7,286047005.3,N
1505180855.5,286047006.1,N
1505180875.3,286047005.0,N
1505180895.2,286047002.3,N
1505180915.0,286046998.2,N
1505180915.9,286046998.2,N
1505180935.7,286046996.8,N
1505180955.6,286047000.4,N
1505180975.4,286047001.3,N
1505180995.2,286047002.6,N
1505181015.1,286047001.9,N
1505181016.0,286047001.9,N
1505181035.8,286047005.7,N
1505181055.6,286047005.2,N
1505181075.5,286047005.9,N
1505181095.3,286047005.6,N
1505181115.1,286047003.8,N
1505181135.9,286047003.6,N
1505181155.7,286047005.6,N
1505181175.5,286047006.4,N
1505181195.3,286047003.2,N
1505181215.2,286047004.4,N
1505181235.0,286047004.1,N
1505181235.9,286047004.1,N
1505181255.7,286047003.1,N
1505181275.6,286047002.1,N
1505181295.4,286047000.4,N
1505181315.2,286047000.2,N
1505181335.1,286047000.4,N
1505181336.0,286047000.4,N
1505181355.8,286046996.9,N
1505181375.6,286046996.9,N
1505181395.5,286047001.0,N
1505181415.3,286047000.1,N
1505181435.1,286046998.8,N
1505181455.9,286046999.2,N
1505181475.7,286047000.4,N
1505181495.5,286046999.8,N
1505181515.4,286047002.9,N
1505181535.2,286047001.3,N
1505181555.0,286047003.2,N
1505181555.9,286047003.2,N
1505181575.8,286047004.2,N
1505181595.6,286047000.5,N
